TimePST,TemperatureF,Dew PointF,Humidity,Sea Level PressureIn,VisibilityMPH,Wind Direction,Wind SpeedMPH,Gust SpeedMPH,PrecipitationIn,Events,Conditions,WindDirDegrees,DateUTC
12:52 AM,19.0,14.0,81,30.33,-9999.0,NE,5.8,-,N/A,,Unknown,50,2014-01-20 08:52:00
1:52 AM,19.0,16.0,88,30.35,-9999.0,ENE,8.1,-,N/A,,Unknown,60,2014-01-20 09:52:00
2:52 AM,19.0,16.0,88,30.37,-9999.0,NE,6.9,-,N/A,,Unknown,50,2014-01-20 10:52:00
3:52 AM,17.1,14.0,88,30.39,-9999.0,South,4.6,-,N/A,,Unknown,190,2014-01-20 11:52:00
4:52 AM,16.0,12.9,88,30.42,-9999.0,SSW,5.8,-,N/A,,Unknown,200,2014-01-20 12:52:00
6:52 AM,15.1,12.0,88,30.47,-9999.0,SE,5.8,-,N/A,,Unknown,140,2014-01-20 14:52:00
7:52 AM,17.1,14.0,88,30.48,-9999.0,South,6.9,-,N/A,,Unknown,170,2014-01-20 15:52:00
8:52 AM,27.0,21.0,78,30.48,-9999.0,Calm,Calm,-,N/A,,Unknown,0,2014-01-20 16:52:00
9:52 AM,34.0,21.0,59,30.50,-9999.0,Calm,Calm,-,N/A,,Unknown,0,2014-01-20 17:52:00
10:52 AM,37.9,21.0,51,30.49,-9999.0,North,5.8,-,N/A,,Unknown,10,2014-01-20 18:52:00
11:52 AM,41.0,21.9,47,30.47,-9999.0,NNW,5.8,-,N/A,,Unknown,340,2014-01-20 19:52:00
12:52 PM,44.1,21.9,42,30.44,-9999.0,NNE,9.2,-,N/A,,Unknown,30,2014-01-20 20:52:00
1:52 PM,46.9,21.0,36,30.43,-9999.0,NE,8.1,-,N/A,,Unknown,40,2014-01-20 21:52:00
2:52 PM,48.0,21.0,34,30.43,-9999.0,NNE,6.9,-,N/A,,Unknown,30,2014-01-20 22:52:00
3:52 PM,46.9,21.0,36,30.45,-9999.0,NNE,9.2,-,N/A,,Unknown,30,2014-01-20 23:52:00
4:52 PM,39.0,21.0,49,30.47,-9999.0,NNE,6.9,-,N/A,,Unknown,30,2014-01-21 00:52:00
5:52 PM,32.0,19.0,59,30.51,-9999.0,NE,6.9,-,N/A,,Unknown,50,2014-01-21 01:52:00
6:52 PM,27.0,19.0,72,30.53,-9999.0,NE,10.4,-,N/A,,Unknown,50,2014-01-21 02:52:00
7:52 PM,26.1,19.0,75,30.53,-9999.0,NE,9.2,-,N/A,,Unknown,50,2014-01-21 03:52:00
8:52 PM,21.9,19.0,89,30.52,-9999.0,NNE,9.2,-,N/A,,Unknown,30,2014-01-21 04:52:00
9:52 PM,21.0,19.0,92,30.53,-9999.0,NE,9.2,-,N/A,,Unknown,50,2014-01-21 05:52:00
10:52 PM,19.9,17.1,89,30.53,-9999.0,ENE,6.9,-,N/A,,Unknown,60,2014-01-21 06:52:00
11:52 PM,18.0,16.0,92,30.52,-9999.0,East,5.8,-,N/A,,Unknown,80,2014-01-21 07:52:00